Time,TemperatureF,DewpointF,PressureIn,WindDirection,WindDirectionDegrees,WindSpeedMPH,WindSpeedGustMPH,Humidity,HourlyPrecipIn,Conditions,Clouds,dailyrainin,SolarRadiationWatts/m^2,SoftwareType,DateUTC
2013-07-05 00:01:00,57.6,51.5,30.27,WNW,301,1.2,1.2,80,0.00,CLR,,0.00,0.0,WeatherDisplay:10.37,2013-07-04 23:01:00,
2013-07-05 00:06:00,57.4,51.6,30.28,WNW,301,1.2,1.2,81,0.00,CLR,,0.00,0.0,WeatherDisplay:10.37,2013-07-04 23:06:00,
2013-07-05 00:11:00,57.3,51.5,30.28,WNW,301,3.5,3.5,81,0.00,CLR,,0.00,0.0,WeatherDisplay:10.37,2013-07-04 23:11:00,
2013-07-05 00:16:00,57.1,51.7,30.28,WNW,301,2.3,2.3,82,0.00,CLR,,0.00,0.0,WeatherDisplay:10.37,2013-07-04 23:16:00,
2013-07-05 00:21:00,57.1,51.7,30.28,WNW,301,3.5,3.5,82,0.00,CLR,,0.00,0.0,WeatherDisplay:10.37,2013-07-04 23:21:00,
2013-07-05 00:26:00,56.9,51.5,30.28,WNW,301,2.3,2.3,82,0.00,CLR,,0.00,0.0,WeatherDisplay:10.37,2013-07-04 23:26:00,
2013-07-05 00:31:00,56.8,51.7,30.28,WNW,300,2.3,2.3,83,0.00,CLR,,0.00,0.0,WeatherDisplay:10.37,2013-07-04 23:31:00,
2013-07-05 00:36:00,56.6,51.5,30.29,WNW,300,1.2,1.2,83,0.00,CLR,,0.00,0.0,WeatherDisplay:10.37,2013-07-04 23:36:00,
2013-07-05 00:41:00,56.5,51.4,30.29,WNW,301,3.5,3.5,83,0.00,CLR,,0.00,0.0,WeatherDisplay:10.37,2013-07-04 23:41:00,
2013-07-05 00:46:00,56.4,51.6,30.29,WNW,301,3.5,3.5,84,0.00,CLR,,0.00,0.0,WeatherDisplay:10.37,2013-07-04 23:46:00,
2013-07-05 00:51:00,56.4,51.6,30.29,WNW,301,0.0,0.0,84,0.00,CLR,,0.00,0.0,WeatherDisplay:10.37,2013-07-04 23:51:00,
2013-07-05 00:56:00,56.3,51.5,30.29,WNW,300,3.5,3.5,84,0.00,CLR,,0.00,0.0,WeatherDisplay:10.37,2013-07-04 23:56:00,
2013-07-05 01:01:00,56.2,51.7,30.29,WNW,301,1.2,1.2,85,0.00,CLR,,0.00,0.0,WeatherDisplay:10.37,2013-07-05 00:01:00,
2013-07-05 01:06:00,56.1,51.7,30.30,WNW,300,2.3,2.3,85,0.00,CLR,,0.00,0.0,WeatherDisplay:10.37,2013-07-05 00:06:00,
2013-07-05 01:11:00,56.0,51.6,30.30,WNW,300,1.2,1.2,85,0.00,CLR,,0.00,0.0,WeatherDisplay:10.37,2013-07-05 00:11:00,
2013-07-05 01:16:00,55.9,51.8,30.30,WNW,301,3.5,3.5,86,0.00,CLR,,0.00,0.0,WeatherDisplay:10.37,2013-07-05 00:16:00,
2013-07-05 01:21:00,55.8,51.7,30.30,WNW,301,0.0,0.0,86,0.00,CLR,,0.00,0.0,WeatherDisplay:10.37,2013-07-05 00:21:00,
2013-07-05 01:26:00,55.7,51.6,30.30,WNW,301,1.2,1.2,86,0.00,CLR,,0.00,0.0,WeatherDisplay:10.37,2013-07-05 00:26:00,
2013-07-05 01:31:00,55.6,51.5,30.30,WNW,300,2.3,2.3,86,0.00,CLR,,0.00,0.0,WeatherDisplay:10.37,2013-07-05 00:31:00,
2013-07-05 01:36:00,55.5,51.7,30.30,WNW,301,0.0,0.0,87,0.00,CLR,,0.00,0.0,WeatherDisplay:10.37,2013-07-05 00:36:00,
2013-07-05 01:41:00,55.4,51.6,30.30,WNW,300,2.3,2.3,87,0.00,CLR,,0.00,0.0,WeatherDisplay:10.37,2013-07-05 00:41:00,
2013-07-05 01:46:00,55.3,51.5,30.31,WNW,301,1.2,1.2,87,0.00,CLR,,0.00,0.0,WeatherDisplay:10.37,2013-07-05 00:46:00,
2013-07-05 01:51:00,55.1,51.3,30.30,WNW,301,3.5,3.5,87,0.00,CLR,,0.00,0.0,WeatherDisplay:10.37,2013-07-05 00:51:00,
2013-07-05 01:56:00,55.0,51.5,30.30,WNW,301,1.2,0.0,88,0.00,CLR,,0.00,0.0,WeatherDisplay:10.37,2013-07-05 00:56:00,
2013-07-05 02:01:00,54.9,51.4,30.31,WNW,301,0.0,0.0,88,0.00,CLR,,0.00,0.0,WeatherDisplay:10.37,2013-07-05 01:01:00,
2013-07-05 02:06:00,54.8,51.3,30.31,WNW,300,0.0,0.0,88,0.00,CLR,,0.00,0.0,WeatherDisplay:10.37,2013-07-05 01:06:00,
2013-07-05 02:11:00,54.7,51.2,30.31,WNW,301,0.0,0.0,88,0.00,CLR,,0.00,0.0,WeatherDisplay:10.37,2013-07-05 01:11:00,
2013-07-05 02:16:00,54.6,51.1,30.30,WNW,300,0.0,0.0,88,0.00,CLR,,0.00,0.0,WeatherDisplay:10.37,2013-07-05 01:16:00,
2013-07-05 02:21:00,54.5,51.0,30.31,WNW,301,0.0,0.0,88,0.00,CLR,,0.00,0.0,WeatherDisplay:10.37,2013-07-05 01:21:00,
2013-07-05 02:26:00,54.4,50.9,30.30,WNW,301,0.0,0.0,88,0.00,CLR,,0.00,0.0,WeatherDisplay:10.37,2013-07-05 01:26:00,
2013-07-05 02:31:00,54.2,50.7,30.31,WNW,301,0.0,0.0,88,0.00,CLR,,0.00,0.0,WeatherDisplay:10.37,2013-07-05 01:31:00,
2013-07-05 02:36:00,54.2,50.7,30.30,WNW,301,0.0,0.0,88,0.00,CLR,,0.00,0.0,WeatherDisplay:10.37,2013-07-05 01:36:00,
2013-07-05 02:41:00,54.1,50.9,30.31,WNW,300,0.0,0.0,89,0.00,CLR,,0.00,0.0,WeatherDisplay:10.37,2013-07-05 01:41:00,
2013-07-05 02:46:00,54.0,50.8,30.31,WNW,300,0.0,0.0,89,0.00,CLR,,0.00,0.0,WeatherDisplay:10.37,2013-07-05 01:46:00,
2013-07-05 02:51:00,53.9,50.7,30.31,WNW,301,0.0,0.0,89,0.00,CLR,,0.00,0.0,WeatherDisplay:10.37,2013-07-05 01:51:00,
2013-07-05 02:56:00,53.7,50.5,30.30,WNW,301,0.0,0.0,89,0.00,CLR,,0.00,0.0,WeatherDisplay:10.37,2013-07-05 01:56:00,
2013-07-05 03:01:00,53.5,50.3,30.31,WNW,301,0.0,0.0,89,0.00,CLR,,0.00,0.0,WeatherDisplay:10.37,2013-07-05 02:01:00,
2013-07-05 03:06:00,53.4,50.2,30.31,WNW,301,0.0,0.0,89,0.00,CLR,,0.00,0.0,WeatherDisplay:10.37,2013-07-05 02:06:00,
2013-07-05 03:11:00,53.2,50.0,30.31,WNW,300,0.0,0.0,89,0.00,CLR,,0.00,0.0,WeatherDisplay:10.37,2013-07-05 02:11:00,
2013-07-05 03:16:00,53.1,50.2,30.31,WNW,301,0.0,0.0,90,0.00,CLR,,0.00,0.0,WeatherDisplay:10.37,2013-07-05 02:16:00,
2013-07-05 03:21:00,53.0,50.1,30.31,WNW,300,0.0,0.0,90,0.00,CLR,,0.00,0.0,WeatherDisplay:10.37,2013-07-05 02:21:00,
2013-07-05 03:26:00,52.9,50.0,30.31,WNW,301,0.0,0.0,90,0.00,CLR,,0.00,0.0,WeatherDisplay:10.37,2013-07-05 02:26:00,
2013-07-05 03:31:00,52.8,49.9,30.31,WNW,301,0.0,0.0,90,0.00,CLR,,0.00,0.0,WeatherDisplay:10.37,2013-07-05 02:31:00,
2013-07-05 03:36:00,52.7,49.8,30.31,WNW,301,0.0,0.0,90,0.00,CLR,,0.00,0.0,WeatherDisplay:10.37,2013-07-05 02:36:00,
2013-07-05 03:41:00,52.6,49.8,30.31,WNW,301,0.0,0.0,90,0.00,CLR,,0.00,0.0,WeatherDisplay:10.37,2013-07-05 02:41:00,
2013-07-05 03:46:00,52.5,49.7,30.32,WNW,301,0.0,0.0,90,0.00,CLR,,0.00,0.0,WeatherDisplay:10.37,2013-07-05 02:46:00,
2013-07-05 03:51:00,52.3,49.8,30.32,WNW,300,0.0,0.0,91,0.00,CLR,,0.00,0.0,WeatherDisplay:10.37,2013-07-05 02:51:00,
2013-07-05 03:56:00,52.2,49.7,30.32,WNW,300,0.0,0.0,91,0.00,CLR,,0.00,0.0,WeatherDisplay:10.37,2013-07-05 02:56:00,
2013-07-05 04:01:00,52.0,49.5,30.32,WNW,301,0.0,0.0,91,0.00,CLR,,0.00,0.0,WeatherDisplay:10.37,2013-07-05 03:01:00,
2013-07-05 04:06:00,51.9,49.4,30.33,WNW,301,0.0,0.0,91,0.00,CLR,,0.00,0.0,WeatherDisplay:10.37,2013-07-05 03:06:00,
2013-07-05 04:11:00,51.9,49.4,30.33,WNW,300,0.0,0.0,91,0.00,CLR,,0.00,0.0,WeatherDisplay:10.37,2013-07-05 03:11:00,
2013-07-05 04:16:00,51.8,49.3,30.33,WNW,301,0.0,0.0,91,0.00,CLR,,0.00,0.0,WeatherDisplay:10.37,2013-07-05 03:16:00,
2013-07-05 04:21:00,51.9,49.4,30.33,WNW,301,0.0,0.0,91,0.00,CLR,,0.00,0.0,WeatherDisplay:10.37,2013-07-05 03:21:00,
2013-07-05 04:26:00,51.8,49.3,30.33,NW,321,1.2,1.2,91,0.00,OVC,,0.00,0.0,WeatherDisplay:10.37,2013-07-05 03:26:00,
2013-07-05 04:31:00,51.8,49.5,30.34,NW,321,0.0,0.0,92,0.00,OVC,,0.00,0.0,WeatherDisplay:10.37,2013-07-05 03:31:00,
2013-07-05 04:36:00,51.9,49.6,30.34,NW,321,0.0,0.0,92,0.00,OVC,,0.00,0.0,WeatherDisplay:10.37,2013-07-05 03:36:00,
2013-07-05 04:41:00,51.9,49.6,30.34,NW,321,0.0,0.0,92,0.00,OVC,,0.00,0.0,WeatherDisplay:10.37,2013-07-05 03:41:00,
2013-07-05 04:46:00,51.9,49.6,30.34,NW,321,0.0,0.1,92,0.00,OVC,,0.00,0.0,WeatherDisplay:10.37,2013-07-05 03:46:00,
2013-07-05 04:51:00,51.8,49.5,30.34,NW,321,0.0,0.0,92,0.00,OVC,,0.00,0.0,WeatherDisplay:10.37,2013-07-05 03:51:00,
2013-07-05 04:56:00,51.8,49.8,30.34,NW,321,0.0,0.0,93,0.00,OVC,,0.00,0.0,WeatherDisplay:10.37,2013-07-05 03:56:00,
2013-07-05 05:01:00,51.9,49.9,30.35,NW,321,0.0,0.0,93,0.00,OVC,,0.00,0.0,WeatherDisplay:10.37,2013-07-05 04:01:00,
2013-07-05 05:06:00,51.8,49.8,30.35,NW,321,0.0,0.0,93,0.00,OVC,,0.00,5.0,WeatherDisplay:10.37,2013-07-05 04:06:00,
2013-07-05 05:11:00,51.7,49.7,30.35,NW,321,0.0,0.0,93,0.00,OVC,,0.00,7.0,WeatherDisplay:10.37,2013-07-05 04:11:00,
2013-07-05 05:16:00,51.6,49.4,30.35,NW,321,0.0,0.0,92,0.00,BKN,,0.00,9.0,WeatherDisplay:10.37,2013-07-05 04:16:00,
2013-07-05 05:21:00,51.6,49.4,30.35,NW,321,0.0,0.0,92,0.00,BKN,,0.00,14.0,WeatherDisplay:10.37,2013-07-05 04:21:00,
2013-07-05 05:26:00,51.5,49.5,30.35,NW,321,0.0,0.0,93,0.00,BKN,,0.00,19.0,WeatherDisplay:10.37,2013-07-05 04:26:00,
2013-07-05 05:31:00,51.5,49.5,30.36,NW,321,0.0,0.0,93,0.00,BKN,,0.00,23.0,WeatherDisplay:10.37,2013-07-05 04:31:00,
2013-07-05 05:36:00,51.5,49.5,30.36,NW,321,0.0,0.0,93,0.00,BKN,,0.00,26.0,WeatherDisplay:10.37,2013-07-05 04:36:00,
2013-07-05 05:41:00,51.4,49.4,30.36,NW,321,0.0,0.0,93,0.00,BKN,,0.00,33.0,WeatherDisplay:10.37,2013-07-05 04:41:00,
2013-07-05 05:46:00,51.5,49.5,30.36,NW,321,0.0,0.0,93,0.00,BKN,,0.00,40.0,WeatherDisplay:10.37,2013-07-05 04:46:00,
2013-07-05 05:51:00,51.7,49.7,30.36,NW,321,0.0,0.0,93,0.00,BKN,,0.00,49.0,WeatherDisplay:10.37,2013-07-05 04:51:00,
2013-07-05 05:56:00,52.0,50.3,30.36,NW,321,1.2,1.2,94,0.00,BKN,,0.00,60.0,WeatherDisplay:10.37,2013-07-05 04:56:00,
2013-07-05 06:01:00,52.1,50.4,30.36,NW,321,0.0,0.0,94,0.00,BKN,,0.00,47.0,WeatherDisplay:10.37,2013-07-05 05:01:00,
2013-07-05 06:06:00,52.2,50.5,30.36,NW,321,0.0,0.0,94,0.00,BKN,,0.00,54.0,WeatherDisplay:10.37,2013-07-05 05:06:00,
2013-07-05 06:11:00,52.4,50.7,30.37,NW,321,1.2,0.0,94,0.00,BKN,,0.00,74.0,WeatherDisplay:10.37,2013-07-05 05:11:00,
2013-07-05 06:16:00,52.5,50.8,30.37,NW,321,1.2,0.0,94,0.00,BKN,,0.00,100.0,WeatherDisplay:10.37,2013-07-05 05:16:00,
2013-07-05 06:21:00,52.7,51.0,30.37,NW,321,0.0,0.0,94,0.00,BKN,,0.00,102.0,WeatherDisplay:10.37,2013-07-05 05:21:00,
2013-07-05 06:26:00,52.8,51.1,30.37,NW,321,1.2,1.2,94,0.00,BKN,,0.00,109.0,WeatherDisplay:10.37,2013-07-05 05:26:00,
2013-07-05 06:31:00,52.9,51.2,30.37,NW,321,0.0,0.1,94,0.00,BKN,,0.00,114.0,WeatherDisplay:10.37,2013-07-05 05:31:00,
2013-07-05 06:36:00,53.1,51.4,30.37,NW,321,1.2,1.2,94,0.00,BKN,,0.00,135.0,WeatherDisplay:10.37,2013-07-05 05:36:00,
2013-07-05 06:41:00,53.3,51.6,30.38,NW,321,1.2,1.2,94,0.00,BKN,,0.00,69.0,WeatherDisplay:10.37,2013-07-05 05:41:00,
2013-07-05 06:46:00,53.5,51.8,30.38,NW,321,0.0,0.0,94,0.00,BKN,,0.00,151.0,WeatherDisplay:10.37,2013-07-05 05:46:00,
2013-07-05 06:51:00,53.8,52.4,30.38,NW,321,0.0,0.0,95,0.00,BKN,,0.00,158.0,WeatherDisplay:10.37,2013-07-05 05:51:00,
2013-07-05 06:56:00,53.9,52.2,30.38,NW,321,2.3,0.0,94,0.00,BKN,,0.00,144.0,WeatherDisplay:10.37,2013-07-05 05:56:00,
2013-07-05 07:01:00,54.2,52.5,30.38,NW,321,1.2,1.2,94,0.00,BKN,,0.00,181.0,WeatherDisplay:10.37,2013-07-05 06:01:00,
2013-07-05 07:06:00,54.4,53.0,30.38,NW,321,0.0,0.0,95,0.00,BKN,,0.00,176.0,WeatherDisplay:10.37,2013-07-05 06:06:00,
2013-07-05 07:11:00,54.5,52.8,30.38,NW,321,2.3,2.3,94,0.00,BKN,,0.00,207.0,WeatherDisplay:10.37,2013-07-05 06:11:00,
2013-07-05 07:16:00,54.8,53.1,30.38,NW,321,0.0,0.0,94,0.00,BKN,,0.00,221.0,WeatherDisplay:10.37,2013-07-05 06:16:00,
2013-07-05 07:21:00,55.0,53.3,30.39,NW,321,1.2,0.0,94,0.00,SCT,,0.00,239.0,WeatherDisplay:10.37,2013-07-05 06:21:00,
2013-07-05 07:26:00,55.3,53.6,30.39,NW,321,1.2,1.2,94,0.00,SCT,,0.00,255.0,WeatherDisplay:10.37,2013-07-05 06:26:00,
2013-07-05 07:31:00,55.5,53.8,30.39,NW,321,1.2,1.2,94,0.00,SCT,,0.00,269.0,WeatherDisplay:10.37,2013-07-05 06:31:00,
2013-07-05 07:36:00,55.8,54.1,30.39,NW,321,2.3,2.3,94,0.00,SCT,,0.00,279.0,WeatherDisplay:10.37,2013-07-05 06:36:00,
2013-07-05 07:41:00,56.2,54.5,30.39,NW,321,1.2,1.2,94,0.00,SCT,,0.00,294.0,WeatherDisplay:10.37,2013-07-05 06:41:00,
2013-07-05 07:46:00,56.6,54.6,30.39,NW,321,1.2,1.2,93,0.00,SCT,,0.00,297.0,WeatherDisplay:10.37,2013-07-05 06:46:00,
2013-07-05 07:51:00,56.9,54.9,30.39,NW,321,3.5,3.5,93,0.00,SCT,,0.00,320.0,WeatherDisplay:10.37,2013-07-05 06:51:00,
2013-07-05 07:56:00,57.2,54.9,30.39,NW,321,1.2,1.2,92,0.00,SCT,,0.00,336.0,WeatherDisplay:10.37,2013-07-05 06:56:00,
2013-07-05 08:01:00,57.6,55.3,30.40,NW,321,1.2,1.2,92,0.00,SCT,,0.00,350.0,WeatherDisplay:10.37,2013-07-05 07:01:00,
2013-07-05 08:06:00,57.9,55.0,30.40,NW,321,2.3,2.3,90,0.00,SCT,,0.00,360.0,WeatherDisplay:10.37,2013-07-05 07:06:00,
2013-07-05 08:11:00,58.4,55.2,30.40,NW,321,2.0,2.0,89,0.00,SCT,,0.00,378.0,WeatherDisplay:10.37,2013-07-05 07:11:00,
2013-07-05 08:16:00,58.7,55.2,30.40,NW,321,2.3,2.3,88,0.00,SCT,,0.00,387.0,WeatherDisplay:10.37,2013-07-05 07:16:00,
2013-07-05 08:21:00,59.2,55.3,30.40,NW,321,1.2,0.0,87,0.00,SCT,,0.00,408.0,WeatherDisplay:10.37,2013-07-05 07:21:00,
2013-07-05 08:26:00,59.7,55.5,30.40,NW,321,2.3,2.3,86,0.00,SCT,,0.00,420.0,WeatherDisplay:10.37,2013-07-05 07:26:00,
2013-07-05 08:31:00,60.2,55.7,30.40,NNW,333,3.5,3.5,85,0.00,SCT,,0.00,436.0,WeatherDisplay:10.37,2013-07-05 07:31:00,
2013-07-05 08:36:00,60.8,55.9,30.40,NNW,338,1.2,1.2,84,0.00,SCT,,0.00,448.0,WeatherDisplay:10.37,2013-07-05 07:36:00,
2013-07-05 08:41:00,61.3,55.8,30.40,NNW,338,1.2,1.2,82,0.00,SCT,,0.00,457.0,WeatherDisplay:10.37,2013-07-05 07:41:00,
2013-07-05 08:46:00,61.7,55.5,30.41,NNW,338,2.3,2.3,80,0.00,SCT,,0.00,466.0,WeatherDisplay:10.37,2013-07-05 07:46:00,
2013-07-05 08:51:00,62.1,55.5,30.41,NNW,338,2.0,2.0,79,0.00,SCT,,0.00,485.0,WeatherDisplay:10.37,2013-07-05 07:51:00,
2013-07-05 08:56:00,62.6,56.0,30.41,NNW,338,3.5,3.5,79,0.00,SCT,,0.00,501.0,WeatherDisplay:10.37,2013-07-05 07:56:00,
2013-07-05 09:01:00,63.3,56.0,30.41,NNW,339,3.5,3.5,77,0.00,SCT,,0.00,520.0,WeatherDisplay:10.37,2013-07-05 08:01:00,
2013-07-05 09:06:00,63.9,55.4,30.41,East,90,4.6,4.6,74,0.00,SCT,,0.00,531.0,WeatherDisplay:10.37,2013-07-05 08:06:00,
2013-07-05 09:11:00,64.4,55.2,30.41,East,84,3.5,3.5,72,0.00,FEW,,0.00,541.0,WeatherDisplay:10.37,2013-07-05 08:11:00,
2013-07-05 09:16:00,65.0,55.4,30.41,East,84,6.0,6.0,71,0.00,FEW,,0.00,554.0,WeatherDisplay:10.37,2013-07-05 08:16:00,
2013-07-05 09:21:00,65.2,55.2,30.41,ENE,75,5.0,5.0,70,0.00,FEW,,0.00,571.0,WeatherDisplay:10.37,2013-07-05 08:21:00,
2013-07-05 09:26:00,65.4,55.0,30.41,ESE,102,4.6,4.6,69,0.00,FEW,,0.00,580.0,WeatherDisplay:10.37,2013-07-05 08:26:00,
2013-07-05 09:31:00,65.6,54.8,30.41,East,94,5.0,5.0,68,0.00,FEW,,0.00,596.0,WeatherDisplay:10.37,2013-07-05 08:31:00,
2013-07-05 09:36:00,65.5,54.7,30.41,East,95,5.0,5.0,68,0.00,FEW,,0.00,577.0,WeatherDisplay:10.37,2013-07-05 08:36:00,
2013-07-05 09:41:00,65.8,54.9,30.41,East,100,3.5,3.5,68,0.00,FEW,,0.00,610.0,WeatherDisplay:10.37,2013-07-05 08:41:00,
2013-07-05 09:46:00,66.0,54.3,30.41,East,84,6.9,6.9,66,0.00,FEW,,0.00,617.0,WeatherDisplay:10.37,2013-07-05 08:46:00,
2013-07-05 09:51:00,66.5,55.2,30.41,East,80,4.6,4.6,67,0.00,FEW,,0.00,621.0,WeatherDisplay:10.37,2013-07-05 08:51:00,
2013-07-05 09:56:00,67.1,55.4,30.41,East,82,3.5,3.5,66,0.00,FEW,,0.00,635.0,WeatherDisplay:10.37,2013-07-05 08:56:00,
2013-07-05 10:01:00,67.1,55.4,30.41,East,82,1.2,1.2,66,0.00,FEW,,0.00,647.0,WeatherDisplay:10.37,2013-07-05 09:01:00,
2013-07-05 10:06:00,67.0,56.1,30.41,East,80,3.5,3.5,68,0.00,FEW,,0.00,636.0,WeatherDisplay:10.37,2013-07-05 09:06:00,
2013-07-05 10:11:00,67.0,55.3,30.41,East,84,4.6,4.6,66,0.00,FEW,,0.00,649.0,WeatherDisplay:10.37,2013-07-05 09:11:00,
2013-07-05 10:16:00,66.5,55.2,30.41,East,89,4.6,4.6,67,0.00,FEW,,0.00,666.0,WeatherDisplay:10.37,2013-07-05 09:16:00,
2013-07-05 10:22:00,67.0,55.3,30.41,East,91,3.5,3.5,66,0.00,FEW,,0.00,687.0,WeatherDisplay:10.37,2013-07-05 09:22:00,
2013-07-05 10:27:00,67.2,55.5,30.41,East,92,1.2,1.2,66,0.00,FEW,,0.00,696.0,WeatherDisplay:10.37,2013-07-05 09:27:00,
2013-07-05 10:32:00,67.5,56.2,30.41,ENE,78,3.5,3.5,67,0.00,FEW,,0.00,708.0,WeatherDisplay:10.37,2013-07-05 09:32:00,
2013-07-05 10:38:00,68.1,55.9,30.41,East,81,3.5,3.5,65,0.00,FEW,,0.00,717.0,WeatherDisplay:10.37,2013-07-05 09:38:00,
2013-07-05 10:44:00,68.8,57.0,30.41,East,83,1.2,1.2,66,0.00,FEW,,0.00,726.0,WeatherDisplay:10.37,2013-07-05 09:44:00,
2013-07-05 10:49:00,68.6,56.8,30.41,East,84,3.5,3.5,66,0.00,FEW,,0.00,740.0,WeatherDisplay:10.37,2013-07-05 09:49:00,
2013-07-05 10:55:00,69.0,56.3,30.41,ESE,113,3.5,3.5,64,0.00,FEW,,0.00,758.0,WeatherDisplay:10.37,2013-07-05 09:55:00,
2013-07-05 11:00:00,68.8,57.0,30.41,SSE,153,8.0,8.0,66,0.00,FEW,,0.00,768.0,WeatherDisplay:10.37,2013-07-05 10:00:00,
2013-07-05 11:05:00,69.3,56.2,30.41,SE,135,3.5,3.5,63,0.00,FEW,,0.00,779.0,WeatherDisplay:10.37,2013-07-05 10:05:00,
2013-07-05 11:10:00,69.2,56.9,30.41,SE,135,2.3,2.3,65,0.00,FEW,,0.00,788.0,WeatherDisplay:10.37,2013-07-05 10:10:00,
2013-07-05 11:15:00,69.8,57.9,30.41,SE,135,2.0,2.0,66,0.00,FEW,,0.00,798.0,WeatherDisplay:10.37,2013-07-05 10:15:00,
2013-07-05 11:21:00,69.8,56.6,30.41,SE,142,4.6,4.6,63,0.00,FEW,,0.00,814.0,WeatherDisplay:10.37,2013-07-05 10:21:00,
2013-07-05 11:26:00,70.1,56.5,30.41,SE,146,2.0,2.0,62,0.00,FEW,,0.00,828.0,WeatherDisplay:10.37,2013-07-05 10:26:00,
2013-07-05 11:31:00,71.0,57.3,30.41,SE,132,3.5,3.5,62,0.00,FEW,,0.00,842.0,WeatherDisplay:10.37,2013-07-05 10:31:00,
2013-07-05 11:36:00,71.0,56.9,30.41,SE,132,3.5,3.5,61,0.00,CLR,,0.00,837.0,WeatherDisplay:10.37,2013-07-05 10:36:00,
2013-07-05 11:41:00,71.4,56.8,30.41,SE,132,3.5,3.5,60,0.00,FEW,,0.00,573.0,WeatherDisplay:10.37,2013-07-05 10:41:00,
2013-07-05 11:46:00,70.6,57.8,30.41,SE,134,3.0,3.0,64,0.00,FEW,,0.00,875.0,WeatherDisplay:10.37,2013-07-05 10:46:00,
2013-07-05 11:52:00,70.5,56.9,30.41,SE,135,1.2,1.2,62,0.00,FEW,,0.00,898.0,WeatherDisplay:10.37,2013-07-05 10:52:00,
2013-07-05 11:57:00,70.5,56.9,30.41,SE,146,3.5,3.5,62,0.00,CLR,,0.00,893.0,WeatherDisplay:10.37,2013-07-05 10:57:00,
2013-07-05 12:02:00,70.4,56.8,30.41,SE,141,3.5,3.5,62,0.00,CLR,,0.00,264.0,WeatherDisplay:10.37,2013-07-05 11:02:00,
2013-07-05 12:07:00,71.1,57.4,30.41,SE,140,1.2,1.2,62,0.00,SCT,,0.00,232.0,WeatherDisplay:10.37,2013-07-05 11:07:00,
2013-07-05 12:12:00,70.3,56.2,30.41,SE,130,1.2,1.2,61,0.00,BKN,,0.00,269.0,WeatherDisplay:10.37,2013-07-05 11:12:00,
2013-07-05 12:18:00,70.7,57.0,30.41,SE,130,5.8,5.8,62,0.00,BKN,,0.00,896.0,WeatherDisplay:10.37,2013-07-05 11:18:00,
2013-07-05 12:23:00,72.0,56.9,30.41,SE,130,1.0,1.0,59,0.00,SCT,,0.00,868.0,WeatherDisplay:10.37,2013-07-05 11:23:00,
2013-07-05 12:28:00,71.5,56.9,30.41,SE,130,3.0,3.0,60,0.00,CLR,,0.00,775.0,WeatherDisplay:10.37,2013-07-05 11:28:00,
2013-07-05 12:33:00,72.4,56.3,30.41,SE,128,2.3,2.3,57,0.00,FEW,,0.00,900.0,WeatherDisplay:10.37,2013-07-05 11:33:00,
2013-07-05 12:38:00,72.8,57.6,30.41,SE,126,2.3,2.3,59,0.00,CLR,,0.00,951.0,WeatherDisplay:10.37,2013-07-05 11:38:00,
2013-07-05 12:43:00,72.6,56.0,30.41,SE,127,2.3,2.3,56,0.00,CLR,,0.00,947.0,WeatherDisplay:10.37,2013-07-05 11:43:00,
2013-07-05 12:49:00,73.3,57.6,30.41,SE,126,3.5,3.5,58,0.00,CLR,,0.00,870.0,WeatherDisplay:10.37,2013-07-05 11:49:00,
2013-07-05 12:54:00,73.6,55.4,30.41,East,99,4.6,4.6,53,0.00,CLR,,0.00,846.0,WeatherDisplay:10.37,2013-07-05 11:54:00,
2013-07-05 12:59:00,72.2,55.1,30.41,East,99,3.5,3.5,55,0.00,FEW,,0.00,761.0,WeatherDisplay:10.37,2013-07-05 11:59:00,
2013-07-05 13:04:00,71.8,54.8,30.41,East,101,3.0,3.0,55,0.00,FEW,,0.00,800.0,WeatherDisplay:10.37,2013-07-05 12:04:00,
2013-07-05 13:10:00,72.1,54.5,30.41,ESE,102,1.2,1.2,54,0.00,FEW,,0.00,696.0,WeatherDisplay:10.37,2013-07-05 12:10:00,
2013-07-05 13:15:00,72.8,55.7,30.41,ENE,74,4.6,4.6,55,0.00,FEW,,0.00,872.0,WeatherDisplay:10.37,2013-07-05 12:15:00,
2013-07-05 13:20:00,73.9,54.1,30.41,ENE,74,3.5,3.5,50,0.00,FEW,,0.00,652.0,WeatherDisplay:10.37,2013-07-05 12:20:00,
2013-07-05 13:25:00,73.1,54.9,30.41,ESE,102,4.6,4.6,53,0.00,SCT,,0.00,652.0,WeatherDisplay:10.37,2013-07-05 12:25:00,
2013-07-05 13:30:00,72.3,54.2,30.40,ESE,102,3.5,3.5,53,0.00,SCT,,0.00,805.0,WeatherDisplay:10.37,2013-07-05 12:30:00,
2013-07-05 13:36:00,72.7,56.1,30.40,ESE,102,3.0,3.0,56,0.00,FEW,,0.00,875.0,WeatherDisplay:10.37,2013-07-05 12:36:00,
2013-07-05 13:42:00,74.6,57.9,30.41,East,84,3.5,3.6,56,0.00,CLR,,0.00,802.0,WeatherDisplay:10.37,2013-07-05 12:42:00,
2013-07-05 13:47:00,74.5,55.2,30.41,East,86,3.5,3.5,51,0.00,CLR,,0.00,742.0,WeatherDisplay:10.37,2013-07-05 12:47:00,
2013-07-05 13:52:00,73.9,55.7,30.41,East,86,3.5,3.5,53,0.00,FEW,,0.00,744.0,WeatherDisplay:10.37,2013-07-05 12:52:00,
2013-07-05 13:58:00,73.5,55.3,30.41,East,81,2.3,2.3,53,0.00,FEW,,0.00,838.0,WeatherDisplay:10.37,2013-07-05 12:58:00,
2013-07-05 17:04:00,78.0,54.9,30.38,ESE,109,5.0,5.0,45,0.00,CLR,,0.00,547.0,WeatherDisplay:10.37,2013-07-05 16:04:00,
2013-07-05 17:09:00,78.2,55.7,30.38,ESE,108,3.5,3.5,46,0.00,CLR,,0.00,536.0,WeatherDisplay:10.37,2013-07-05 16:09:00,
2013-07-05 17:14:00,78.0,54.9,30.38,ESE,111,4.6,4.6,45,0.00,CLR,,0.00,519.0,WeatherDisplay:10.37,2013-07-05 16:14:00,
2013-07-05 17:19:00,77.8,56.5,30.38,ESE,117,2.0,2.0,48,0.00,CLR,,0.00,508.0,WeatherDisplay:10.37,2013-07-05 16:19:00,
2013-07-05 17:24:00,78.4,55.3,30.38,ESE,117,5.8,5.8,45,0.00,CLR,,0.00,492.0,WeatherDisplay:10.37,2013-07-05 16:24:00,
2013-07-05 17:29:00,78.2,55.7,30.38,ESE,114,1.2,1.2,46,0.00,CLR,,0.00,480.0,WeatherDisplay:10.37,2013-07-05 16:29:00,
2013-07-05 17:34:00,78.3,55.8,30.37,ESE,109,2.3,2.3,46,0.00,CLR,,0.00,468.0,WeatherDisplay:10.37,2013-07-05 16:34:00,
2013-07-05 17:39:00,78.2,55.1,30.38,ESE,123,2.3,2.3,45,0.00,CLR,,0.00,464.0,WeatherDisplay:10.37,2013-07-05 16:39:00,
2013-07-05 17:44:00,78.0,55.5,30.38,East,97,5.8,5.8,46,0.00,CLR,,0.00,457.0,WeatherDisplay:10.37,2013-07-05 16:44:00,
2013-07-05 17:49:00,78.5,56.6,30.38,East,98,3.5,3.5,47,0.00,CLR,,0.00,446.0,WeatherDisplay:10.37,2013-07-05 16:49:00,
2013-07-05 17:54:00,78.4,54.7,30.37,East,98,3.5,3.5,44,0.00,CLR,,0.00,432.0,WeatherDisplay:10.37,2013-07-05 16:54:00,
2013-07-05 17:59:00,78.7,56.2,30.37,East,98,0.0,0.0,46,0.00,CLR,,0.00,410.0,WeatherDisplay:10.37,2013-07-05 16:59:00,
2013-07-05 18:04:00,78.9,55.8,30.37,East,98,2.3,2.3,45,0.00,CLR,,0.00,174.0,WeatherDisplay:10.37,2013-07-05 17:04:00,
2013-07-05 18:09:00,78.9,56.4,30.37,SE,124,4.6,4.6,46,0.00,CLR,,0.00,374.0,WeatherDisplay:10.37,2013-07-05 17:09:00,
2013-07-05 18:14:00,79.0,56.5,30.37,ESE,113,3.5,3.5,46,0.00,CLR,,0.00,367.0,WeatherDisplay:10.37,2013-07-05 17:14:00,
2013-07-05 18:19:00,78.9,56.4,30.37,ESE,113,3.5,3.5,46,0.00,CLR,,0.00,424.0,WeatherDisplay:10.37,2013-07-05 17:19:00,
2013-07-05 18:24:00,78.9,57.5,30.38,ESE,113,0.0,0.0,48,0.00,CLR,,0.00,403.0,WeatherDisplay:10.37,2013-07-05 17:24:00,
2013-07-05 18:29:00,78.8,56.3,30.37,ESE,113,3.5,3.5,46,0.00,CLR,,0.00,366.0,WeatherDisplay:10.37,2013-07-05 17:29:00,
2013-07-05 18:30:00,78.8,56.3,30.37,ESE,113,3.5,3.5,46,0.00,CLR,,0.00,366.0,WeatherDisplay:10.37,2013-07-05 17:30:00,
2013-07-05 18:35:00,78.2,56.3,30.38,ESE,111,5.8,5.8,47,0.00,CLR,,0.00,323.0,WeatherDisplay:10.37,2013-07-05 17:35:00,
2013-07-05 18:40:00,77.5,56.3,30.38,ESE,119,3.5,3.5,48,0.00,CLR,,0.00,146.0,WeatherDisplay:10.37,2013-07-05 17:40:00,
2013-07-05 18:45:00,77.1,55.9,30.38,ESE,120,3.5,3.5,48,0.00,FEW,,0.00,132.0,WeatherDisplay:10.37,2013-07-05 17:45:00,
2013-07-05 18:50:00,76.7,56.7,30.38,ESE,119,2.0,2.0,50,0.00,FEW,,0.00,146.0,WeatherDisplay:10.37,2013-07-05 17:50:00,
2013-07-05 18:55:00,76.3,56.8,30.38,ESE,120,3.5,3.5,51,0.00,FEW,,0.00,190.0,WeatherDisplay:10.37,2013-07-05 17:55:00,
2013-07-05 19:00:00,76.0,57.1,30.38,ESE,119,3.5,3.5,52,0.00,CLR,,0.00,248.0,WeatherDisplay:10.37,2013-07-05 18:00:00,
2013-07-05 19:05:00,75.7,56.8,30.38,ESE,113,3.5,3.5,52,0.00,CLR,,0.00,202.0,WeatherDisplay:10.37,2013-07-05 18:05:00,
2013-07-05 19:10:00,75.7,57.4,30.38,ESE,116,3.5,3.5,53,0.00,CLR,,0.00,214.0,WeatherDisplay:10.37,2013-07-05 18:10:00,
2013-07-05 19:15:00,75.7,57.4,30.39,ESE,116,1.2,1.2,53,0.00,CLR,,0.00,111.0,WeatherDisplay:10.37,2013-07-05 18:15:00,
2013-07-05 19:20:00,75.5,59.7,30.39,SSE,163,4.6,4.6,58,0.00,CLR,,0.00,93.0,WeatherDisplay:10.37,2013-07-05 18:20:00,
2013-07-05 19:25:00,74.5,60.2,30.39,SSE,163,5.8,5.8,61,0.00,CLR,,0.00,98.0,WeatherDisplay:10.37,2013-07-05 18:25:00,
2013-07-05 19:30:00,73.9,60.5,30.39,SSE,163,5.8,5.8,63,0.00,CLR,,0.00,86.0,WeatherDisplay:10.37,2013-07-05 18:30:00,
2013-07-05 19:35:00,73.4,60.9,30.39,SSE,149,4.6,4.6,65,0.00,CLR,,0.00,91.0,WeatherDisplay:10.37,2013-07-05 18:35:00,
2013-07-05 19:40:00,72.8,60.8,30.39,SSE,155,10.4,10.4,66,0.00,CLR,,0.00,123.0,WeatherDisplay:10.37,2013-07-05 18:40:00,
2013-07-05 19:45:00,72.4,60.4,30.39,SSE,167,4.6,4.6,66,0.00,CLR,,0.00,84.0,WeatherDisplay:10.37,2013-07-05 18:45:00,
2013-07-05 19:50:00,71.9,60.3,30.39,SSE,159,7.0,7.0,67,0.00,CLR,,0.00,93.0,WeatherDisplay:10.37,2013-07-05 18:50:00,
2013-07-05 19:55:00,71.5,60.4,30.39,SSE,167,5.8,5.8,68,0.00,CLR,,0.00,98.0,WeatherDisplay:10.37,2013-07-05 18:55:00,
2013-07-05 20:00:00,71.3,60.2,30.39,SSE,157,6.9,6.9,68,0.00,CLR,,0.00,105.0,WeatherDisplay:10.37,2013-07-05 19:00:00,
2013-07-05 20:05:00,70.9,59.8,30.39,SSW,202,8.1,8.1,68,0.00,CLR,,0.00,84.0,WeatherDisplay:10.37,2013-07-05 19:05:00,
2013-07-05 20:10:00,70.6,59.5,30.39,South,169,6.9,6.9,68,0.00,CLR,,0.00,58.0,WeatherDisplay:10.37,2013-07-05 19:10:00,
2013-07-05 20:15:00,70.2,59.6,30.40,SSE,154,5.8,5.8,69,0.00,CLR,,0.00,42.0,WeatherDisplay:10.37,2013-07-05 19:15:00,
2013-07-05 20:20:00,69.7,59.1,30.39,SSE,149,4.6,4.6,69,0.00,CLR,,0.00,33.0,WeatherDisplay:10.37,2013-07-05 19:20:00,
2013-07-05 20:25:00,69.4,58.8,30.40,SSE,168,11.5,11.5,69,0.00,CLR,,0.00,28.0,WeatherDisplay:10.37,2013-07-05 19:25:00,
2013-07-05 20:30:00,69.0,58.4,30.40,SSE,150,6.0,6.0,69,0.00,CLR,,0.00,25.0,WeatherDisplay:10.37,2013-07-05 19:30:00,
2013-07-05 20:35:00,68.7,58.5,30.40,SSE,157,3.5,3.5,70,0.00,OVC,,0.00,21.0,WeatherDisplay:10.37,2013-07-05 19:35:00,
2013-07-05 20:40:00,68.5,58.3,30.40,SSE,165,3.5,3.5,70,0.00,OVC,,0.00,19.0,WeatherDisplay:10.37,2013-07-05 19:40:00,
2013-07-05 20:45:00,68.2,58.4,30.40,SSE,165,3.5,3.5,71,0.00,OVC,,0.00,18.0,WeatherDisplay:10.37,2013-07-05 19:45:00,
2013-07-05 20:50:00,67.9,58.1,30.41,SSE,165,3.5,3.5,71,0.00,OVC,,0.00,14.0,WeatherDisplay:10.37,2013-07-05 19:50:00,
2013-07-05 20:55:00,67.7,58.3,30.41,SSE,166,3.5,3.5,72,0.00,OVC,,0.00,12.0,WeatherDisplay:10.37,2013-07-05 19:55:00,
2013-07-05 21:00:00,67.3,58.0,30.41,South,176,4.6,4.6,72,0.00,OVC,,0.00,11.0,WeatherDisplay:10.37,2013-07-05 20:00:00,
2013-07-05 21:05:00,67.0,57.7,30.41,SSE,159,4.6,4.6,72,0.00,OVC,,0.00,9.0,WeatherDisplay:10.37,2013-07-05 20:05:00,
2013-07-05 21:10:00,66.8,57.9,30.41,SSE,157,2.3,2.6,73,0.00,OVC,,0.00,7.0,WeatherDisplay:10.37,2013-07-05 20:10:00,
2013-07-05 21:15:00,66.5,57.6,30.41,SSE,159,3.5,3.5,73,0.00,OVC,,0.00,5.0,WeatherDisplay:10.37,2013-07-05 20:15:00,
2013-07-05 21:20:00,66.3,57.4,30.41,South,172,2.3,2.3,73,0.00,OVC,,0.00,0.0,WeatherDisplay:10.37,2013-07-05 20:20:00,
2013-07-05 21:25:00,66.1,57.2,30.41,South,172,1.2,1.2,73,0.00,OVC,,0.00,0.0,WeatherDisplay:10.37,2013-07-05 20:25:00,
2013-07-05 21:30:00,65.7,56.8,30.42,South,171,4.0,4.0,73,0.00,OVC,,0.00,0.0,WeatherDisplay:10.37,2013-07-05 20:30:00,
2013-07-05 21:35:00,65.5,57.0,30.42,South,171,3.5,3.5,74,0.00,OVC,,0.00,0.0,WeatherDisplay:10.37,2013-07-05 20:35:00,
2013-07-05 21:40:00,65.3,56.8,30.42,South,171,5.8,5.8,74,0.00,OVC,,0.00,0.0,WeatherDisplay:10.37,2013-07-05 20:40:00,
2013-07-05 21:45:00,65.0,56.5,30.42,South,171,4.0,4.0,74,0.00,OVC,,0.00,0.0,WeatherDisplay:10.37,2013-07-05 20:45:00,
2013-07-05 21:50:00,64.9,56.4,30.42,South,171,2.3,2.3,74,0.00,OVC,,0.00,0.0,WeatherDisplay:10.37,2013-07-05 20:50:00,
2013-07-05 21:55:00,64.7,56.2,30.42,South,171,2.3,2.3,74,0.00,CLR,,0.00,0.0,WeatherDisplay:10.37,2013-07-05 20:55:00,
2013-07-05 22:00:00,64.5,56.4,30.42,South,171,3.5,3.5,75,0.00,CLR,,0.00,0.0,WeatherDisplay:10.37,2013-07-05 21:00:00,
2013-07-05 22:05:00,64.3,56.2,30.42,South,171,1.2,0.0,75,0.00,CLR,,0.00,0.0,WeatherDisplay:10.37,2013-07-05 21:05:00,
2013-07-05 22:10:00,64.1,56.0,30.42,South,171,2.3,0.0,75,0.00,CLR,,0.00,0.0,WeatherDisplay:10.37,2013-07-05 21:10:00,
2013-07-05 22:15:00,63.9,55.8,30.42,South,171,0.0,0.0,75,0.00,CLR,,0.00,0.0,WeatherDisplay:10.37,2013-07-05 21:15:00,
2013-07-05 22:20:00,63.8,56.1,30.42,South,171,0.0,0.0,76,0.00,CLR,,0.00,0.0,WeatherDisplay:10.37,2013-07-05 21:20:00,
2013-07-05 22:25:00,63.7,56.0,30.43,South,171,0.0,0.0,76,0.00,CLR,,0.00,0.0,WeatherDisplay:10.37,2013-07-05 21:25:00,
2013-07-05 22:30:00,63.6,55.9,30.43,South,171,0.0,0.0,76,0.00,CLR,,0.00,0.0,WeatherDisplay:10.37,2013-07-05 21:30:00,
2013-07-05 22:35:00,63.3,55.6,30.42,South,171,0.0,0.0,76,0.00,CLR,,0.00,0.0,WeatherDisplay:10.37,2013-07-05 21:35:00,
2013-07-05 22:40:00,63.1,55.4,30.42,South,171,0.0,0.0,76,0.00,CLR,,0.00,0.0,WeatherDisplay:10.37,2013-07-05 21:40:00,
2013-07-05 22:41:00,63.1,55.4,30.42,South,171,0.0,0.0,76,0.00,CLR,,0.00,0.0,WeatherDisplay:10.37,2013-07-05 21:41:00,
2013-07-05 22:46:00,62.9,55.6,30.43,South,171,0.0,0.0,77,0.00,CLR,,0.00,0.0,WeatherDisplay:10.37,2013-07-05 21:46:00,
2013-07-05 22:51:00,62.8,55.5,30.43,South,171,0.0,0.0,77,0.00,CLR,,0.00,0.0,WeatherDisplay:10.37,2013-07-05 21:51:00,
2013-07-05 22:56:00,62.6,55.3,30.43,South,171,0.0,0.0,77,0.00,CLR,,0.00,0.0,WeatherDisplay:10.37,2013-07-05 21:56:00,
2013-07-05 23:01:00,62.3,55.4,30.43,South,171,0.0,0.0,78,0.00,CLR,,0.00,0.0,WeatherDisplay:10.37,2013-07-05 22:01:00,
2013-07-05 23:06:00,62.2,55.3,30.43,South,171,0.0,0.0,78,0.00,CLR,,0.00,0.0,WeatherDisplay:10.37,2013-07-05 22:06:00,
2013-07-05 23:11:00,61.9,55.0,30.43,South,171,0.0,0.0,78,0.00,CLR,,0.00,0.0,WeatherDisplay:10.37,2013-07-05 22:11:00,
2013-07-05 23:16:00,61.7,55.1,30.43,South,171,0.0,0.0,79,0.00,CLR,,0.00,0.0,WeatherDisplay:10.37,2013-07-05 22:16:00,
2013-07-05 23:21:00,61.5,54.9,30.43,South,171,0.0,0.0,79,0.00,CLR,,0.00,0.0,WeatherDisplay:10.37,2013-07-05 22:21:00,
2013-07-05 23:26:00,61.2,55.0,30.43,South,171,0.0,0.0,80,0.00,CLR,,0.00,0.0,WeatherDisplay:10.37,2013-07-05 22:26:00,
2013-07-05 23:31:00,61.0,55.1,30.43,South,171,0.0,0.0,81,0.00,CLR,,0.00,0.0,WeatherDisplay:10.37,2013-07-05 22:31:00,
2013-07-05 23:36:00,60.8,54.9,30.43,South,171,0.0,0.0,81,0.00,CLR,,0.00,0.0,WeatherDisplay:10.37,2013-07-05 22:36:00,
2013-07-05 23:41:00,60.4,54.9,30.43,South,171,0.0,0.0,82,0.00,CLR,,0.00,0.0,WeatherDisplay:10.37,2013-07-05 22:41:00,
2013-07-05 23:46:00,60.1,54.6,30.43,South,171,0.0,0.0,82,0.00,CLR,,0.00,0.0,WeatherDisplay:10.37,2013-07-05 22:46:00,
2013-07-05 23:51:00,59.9,54.4,30.43,South,171,0.0,0.0,82,0.00,CLR,,0.00,0.0,WeatherDisplay:10.37,2013-07-05 22:51:00,
2013-07-05 23:56:00,59.6,54.4,30.44,South,171,0.0,0.0,83,0.00,CLR,,0.00,0.0,WeatherDisplay:10.37,2013-07-05 22:56:00,